Home > Weather > Bellingham > Past weeks

Flag for U.S.A. Weather for the Past 2 Weeks in Bellingham, Washington, U.S.A.

Now
47 °F

Mostly cloudy.


Feels Like: 40 °F
Forecast: 48 / 53 °F
Wind: 17 mph from Southeast

Location: Bellingham International Airport

Current Time: Feb 13, 2016 at 8:00:11 PM

Latest Report: Feb 13, 2016 at 6:53 PM


Visibility: 10 mi

Pressure: 30.01 "Hg

Humidity: 77%

Dew point: 40 °F

Location of BellinghamLocation

Historic Weather in Bellingham — Graph

°F

Bellingham Temperature Yesterday

Maximum temperature yesterday: 56 °F (at 1:53 PM)
Minimum temperature yesterday: 47 °F (at 3:53 AM)
Average temperature yesterday: 50 °F

High & Low Weather Summary for the Past Weeks

 TemperatureHumidityPressure
High60 °F (Feb 9, 1:53 PM)100% (Feb 7, 6:53 AM)30.62 "Hg (Feb 7, 6:53 AM)
Low32 °F (Feb 7, 5:53 AM)33% (Feb 5, 1:53 PM)29.75 "Hg (Jan 29, 5:53 PM)
Average44 °F82%30.20 "Hg
* Reported Jan 29 5:53 PM — Feb 13 5:53 PM, Bellingham, Weather by CustomWeather, © 2016

Note: Actual official high and low records may vary slightly from our data, if they occured in-between our weather recording intervals... More about our weather records

Advertising

Bellingham Weather History for the Previous 24 Hours

 ConditionsComfort  
Time TempWeatherWind HumidityBarometerVisibility
5:53 PM
Sat, Feb 13
47 °FMostly cloudy.23 mph77%30.01 "Hg10 mi
4:53 PM47 °FLight rain. Mostly cloudy.20 mph80%30.03 "Hg10 mi
3:53 PM47 °FLight rain. Mostly cloudy.20 mph83%30.07 "Hg5 mi
3:00 PM48 °FLight rain. Overcast.21 mph77%30.07 "Hg10 mi
1:53 PM47 °FLight rain. More clouds than sun.12 mph83%30.14 "Hg10 mi
12:53 PM49 °FCloudy.12 mph71%30.18 "Hg10 mi
11:53 AM49 °FMore clouds than sun.16 mph71%30.19 "Hg10 mi
10:53 AM48 °FOvercast.9 mph74%30.23 "Hg10 mi
9:53 AM48 °FScattered clouds.12 mph74%30.25 "Hg10 mi
8:53 AM47 °FBroken clouds.10 mph83%30.26 "Hg10 mi
7:53 AM46 °FMore clouds than sun.6 mph83%30.24 "Hg10 mi
6:53 AM46 °FOvercast.6 mph83%30.26 "Hg10 mi
5:53 AM46 °FMostly cloudy.8 mph83%30.24 "Hg10 mi
4:53 AM47 °FOvercast.9 mph80%30.22 "Hg10 mi
3:53 AM45 °FMostly cloudy.9 mph90%30.21 "Hg10 mi
2:53 AM44 °FLight rain. Overcast.7 mph96%30.18 "Hg9 mi
1:53 AM45 °FLight rain. Overcast.No wind90%30.18 "Hg7 mi
12:53 AM48 °FRain. Fog.3 mph89%30.16 "Hg5 mi
11:53 PM
Fri, Feb 12
48 °FMostly cloudy.5 mph86%30.15 "Hg10 mi
10:53 PM47 °FPassing clouds.No wind90%30.15 "Hg10 mi
9:53 PM48 °FPassing clouds.5 mph86%30.14 "Hg10 mi
8:53 PM47 °FPassing clouds.5 mph86%30.14 "Hg10 mi
Weather by CustomWeather, © 2016

See weather overviewHow to use our weather pages